Home   Weather   Whitehorse   Past weeks
Flag for Canada

Past Weather in Whitehorse, Yukon, Canada — Yesterday and Last 2 Weeks

Now
5 °F

Clear.


Feels Like: 5 °F
Forecast: 32 / 7 °F
Wind: 2 mph from North

Location: Whitehorse

Current Time: Apr 10, 2020 at 6:27:36 am

Latest Report: Apr 10, 2020 at 6:00 am


Visibility: 15 mi

Pressure: 30.60 "Hg (28.12 "Hg at 640m altitude)

Humidity: 72%

Dew Point: -2 °F

Location of WhitehorseLocation

Past Weather in Whitehorse — Graph

°F

Whitehorse Temperature Yesterday

Maximum temperature yesterday: 30 °F (at 5:00 pm)
Minimum temperature yesterday: 21 °F (at 6:00 am)
Average temperature yesterday: 25 °F

High & Low Weather Summary for the Past Weeks

 TemperatureHumidityPressure
High39 °F (Apr 5, 5:00 pm)93% (Apr 4, 2:00 am)30.65 "Hg (Apr 4, 2:00 am)
Low-18 °F (Mar 28, 7:00 am)25% (Mar 27, 4:00 pm)29.34 "Hg (Apr 6, 5:00 am)
Average17 °F56%30.03 "Hg
* Reported Mar 26 5:00 am — Apr 10 5:00 am, Whitehorse. Weather by CustomWeather, © 2020

Note: Actual official high and low records may vary slightly from our data, if they occured in-between our weather recording intervals... More about our weather records

Whitehorse Weather History for the Previous 24 Hours

Scroll right to see more
 ConditionsComfort  
Time TempWeatherWind HumidityBarometerVisibility
5:00 am
Fri, Apr 10
7 °FClear.No wind78%30.58 "Hg15 mi
4:00 am10 °FClear.3 mph67%30.55 "Hg15 mi
3:00 am14 °FPassing clouds.5 mph57%30.53 "Hg15 mi
2:00 am14 °FPassing clouds.5 mph62%30.52 "Hg15 mi
1:00 am16 °FPassing clouds.3 mph57%30.48 "Hg15 mi
12:00 am16 °FPassing clouds.2 mph62%30.46 "Hg15 mi
11:00 pm
Thu, Apr 9
23 °FPassing clouds.7 mph42%30.43 "Hg15 mi
10:00 pm25 °FPassing clouds.10 mph42%30.40 "Hg40 mi
9:00 pm27 °FScattered clouds.6 mph36%30.36 "Hg40 mi
8:00 pm30 °FScattered clouds.8 mph34%30.33 "Hg40 mi
7:00 pm28 °FPartly sunny.5 mph43%30.31 "Hg40 mi
6:00 pm30 °FPartly sunny.13 mph40%30.30 "Hg40 mi
5:00 pm30 °FBroken clouds.3 mph43%30.29 "Hg40 mi
4:00 pm28 °FPartly sunny.7 mph47%30.28 "Hg40 mi
3:00 pm27 °FPartly sunny.6 mph50%30.27 "Hg40 mi
2:30 pm27 °FPartly sunny.5 mph50%30.26 "Hg40 mi
2:03 pm27 °FSnow flurries. Partly sunny.7 mph54%30.26 "Hg25 mi
1:19 pm27 °FPartly sunny.5 mph59%30.25 "Hg25 mi
12:00 pm25 °FBroken clouds.7 mph63%30.24 "Hg15 mi
11:37 am23 °FPartly sunny.8 mph63%30.23 "Hg10 mi
11:00 am21 °FSnow flurries. Partly sunny.9 mph74%30.22 "Hg3 mi
10:20 am21 °FSnow flurries. Overcast.9 mph68%30.20 "Hg2 mi
10:00 am21 °FSnow flurries. Partly sunny.9 mph74%30.19 "Hg5 mi
9:00 am21 °FSnow flurries. Partly sunny.6 mph63%30.16 "Hg10 mi
8:00 am21 °FSnow flurries. Partly sunny.9 mph68%30.12 "Hg10 mi
7:08 am21 °FSnow flurries. Partly sunny.8 mph68%30.09 "Hg10 mi
6:19 am21 °FPassing clouds.8 mph68%30.06 "Hg10 mi
6:00 am21 °FSnow flurries. Partly cloudy.13 mph68%30.05 "Hg7 mi
Weather by CustomWeather, © 2020

See weather overview

Advertising